FW0984 Weather Reports


Display with metric or nautical units.
time (UTC)temp
F
wind
direction
speed
MPH
gust
MPH
rain 1hr
in
rain 24hr
in
rain mn
in
humidity
%
barometer
mb
20201026212036 53 43 0.0 3.0 0.01 0.02 0.01 69 1023.1
20201026211535 53 32 1.0 3.0 0.01 0.02 0.01 69 1023.3
20201026211031 53 32 0.0 3.0 0.00 0.01 0.00 69 1023.3
20201026210532 53 32 1.0 3.0 0.00 0.01 0.00 69 1023.2
20201026210152 53 24 1.0 3.0 0.00 0.01 0.00 69 1023.3
20201026205533 53 333 2.0 4.0 0.00 0.01 0.00 70 1023.4
20201026205030 53 28 1.0 6.0 0.00 0.01 0.00 71 1023.2
20201026204623 53 344 2.0 4.0 0.00 0.01 0.00 72 1023.2
20201026204037 53 51 0.0 0.0 0.00 0.01 0.00 72 1023.3
20201026203531 53 51 0.0 0.0 0.00 0.01 0.00 72 1023.1
20201026203124 53 51 0.0 0.0 0.00 0.01 0.00 72 1023.0
20201026202535 53 51 0.0 0.0 0.00 0.01 0.00 72 1023.1
20201026202037 53 51 0.0 2.0 0.00 0.01 0.00 73 1023.2
20201026201601 53 51 0.0 2.0 0.00 0.01 0.00 73 1023.2
20201026201034 53 53 0.0 0.0 0.00 0.01 0.00 74 1023.1
20201026200526 53 53 0.0 1.0 0.00 0.01 0.00 74 1023.0
20201026200115 53 52 0.0 1.0 0.00 0.01 0.00 74 1023.0
20201026195539 53 52 0.0 2.0 0.00 0.01 0.00 74 1022.8
20201026195026 53 52 0.0 2.0 0.00 0.01 0.00 74 1022.9
20201026194526 52 52 0.0 4.0 0.00 0.01 0.00 74 1022.9
20201026194035 52 355 1.0 4.0 0.00 0.01 0.00 74 1022.8
20201026193531 53 355 0.0 4.0 0.00 0.01 0.00 74 1022.7
20201026193115 52 10 0.0 3.0 0.00 0.01 0.00 74 1022.8
20201026192527 52 5 0.0 2.0 0.00 0.01 0.00 74 1022.8
20201026192057 52 5 1.0 3.0 0.00 0.01 0.00 74 1022.8
20201026191608 52 5 1.0 5.0 0.00 0.01 0.00 73 1022.8
20201026191042 53 25 0.0 5.0 0.00 0.01 0.00 73 1022.8
20201026190533 53 342 1.0 5.0 0.00 0.01 0.00 73 1022.9
20201026190113 53 317 1.0 6.0 0.00 0.01 0.00 73 1022.9
20201026185525 53 348 2.0 6.0 0.00 0.01 0.00 72 1023.0
20201026185023 53 69 1.0 4.0 0.00 0.01 0.00 72 1023.1
20201026184626 53 288 0.0 6.0 0.00 0.01 0.00 72 1023.1
20201026184023 54 36 1.0 6.0 0.00 0.01 0.00 71 1023.1
20201026183522 54 55 1.0 8.0 0.00 0.01 0.00 71 1023.1
20201026183032 54 5 3.0 8.0 0.00 0.01 0.00 71 1023.1
20201026182521 54 13 0.0 3.0 0.00 0.01 0.00 71 1023.0
20201026182035 54 13 0.0 5.0 0.00 0.01 0.00 71 1023.0
20201026181606 54 5 2.0 5.0 0.00 0.01 0.00 71 1022.9
20201026181026 54 328 2.0 5.0 0.00 0.01 0.00 72 1022.9
20201026180523 54 5 0.0 4.0 0.00 0.01 0.00 72 1022.9
20201026180026 54 284 0.0 6.0 0.00 0.01 0.00 72 1022.9
20201026175526 54 340 0.0 5.0 0.00 0.01 0.00 72 1022.8
20201026175025 54 5 1.0 5.0 0.00 0.01 0.00 72 1022.9
20201026174604 54 348 2.0 6.0 0.00 0.01 0.00 71 1022.8
20201026174036 54 355 3.0 6.0 0.00 0.01 0.00 71 1022.8
20201026173520 54 298 0.0 5.0 0.00 0.01 0.00 72 1022.7
20201026173051 54 30 0.0 5.0 0.00 0.01 0.00 71 1022.9
20201026172525 54 117 1.0 5.0 0.00 0.01 0.00 72 1022.9
20201026172053 54 327 0.0 4.0 0.00 0.01 0.00 72 1022.8
20201026171534 55 209 1.0 4.0 0.00 0.01 0.00 72 1023.0
20201026171029 55 194 0.0 2.0 0.00 0.01 0.00 72 1023.0
20201026170520 55 298 0.0 0.0 0.00 0.01 0.00 73 1023.0
20201026170033 55 298 0.0 2.0 0.00 0.01 0.00 72 1023.1
20201026165022 55 298 0.0 3.0 0.00 0.01 0.00 72 1023.0
20201026164534 54 327 0.0 0.0 0.00 0.01 0.00 72 1023.0
20201026164025 55 349 0.0 0.0 0.00 0.01 0.00 71 1023.0
20201026163531 55 349 0.0 0.0 0.00 0.01 0.00 71 1023.1
20201026163027 55 349 0.0 0.0 0.00 0.01 0.00 71 1023.0
20201026162524 55 339 0.0 0.0 0.00 0.01 0.00 71 1023.0
20201026162029 55 340 0.0 2.0 0.00 0.01 0.00 70 1023.0
20201026161527 55 273 0.0 2.0 0.00 0.01 0.00 71 1023.0
20201026161014 55 273 0.0 2.0 0.00 0.01 0.00 71 1023.1
20201026160530 55 273 0.0 0.0 0.00 0.01 0.00 71 1022.9
20201026160023 55 273 0.0 2.0 0.00 0.01 0.00 70 1022.8
20201026155512 55 273 1.0 2.0 0.00 0.01 0.00 71 1022.8
20201026155014 54 273 0.0 3.0 0.00 0.01 0.00 71 1022.9
20201026154519 54 277 0.0 3.0 0.00 0.01 0.00 72 1022.5
20201026154012 54 237 0.0 0.0 0.00 0.01 0.00 71 1022.7
20201026153509 54 234 0.0 0.0 0.00 0.01 0.00 72 1022.7
20201026153039 54 234 0.0 0.0 0.00 0.01 0.00 72 1022.5
20201026152519 54 234 0.0 0.0 0.00 0.01 0.00 72 1022.4
20201026152020 54 234 0.0 0.0 0.00 0.01 0.00 73 1022.4
20201026151515 54 234 0.0 0.0 0.00 0.01 0.00 72 1022.5
20201026151024 54 234 0.0 0.0 0.00 0.01 0.00 72 1022.6
20201026150510 54 234 0.0 0.0 0.00 0.01 0.00 72 1022.5
20201026150020 54 234 0.0 3.0 0.00 0.01 0.00 73 1022.6
20201026145504 53 234 0.0 3.0 0.00 0.01 0.00 73 1022.6
20201026145016 53 214 0.0 2.0 0.00 0.01 0.00 74 1022.6
20201026144110 53 20 0.0 0.0 0.00 0.01 0.00 75 1022.5
20201026143610 53 20 0.0 0.0 0.00 0.01 0.00 75 1022.4
20201026143124 52 20 0.0 0.0 0.00 0.01 0.00 75 1022.4
20201026142607 52 20 0.0 0.0 0.00 0.01 0.00 75 1022.4
20201026142106 52 20 0.0 0.0 0.00 0.01 0.00 75 1022.5
20201026141634 52 20 0.0 0.0 0.00 0.01 0.00 76 1022.5
20201026141125 52 20 0.0 0.0 0.00 0.01 0.00 76 1022.3
20201026140559 52 20 0.0 0.0 0.00 0.01 0.00 76 1022.1
20201026140221 52 20 0.0 0.0 0.00 0.01 0.00 76 1022.1
20201026135603 52 20 0.0 0.0 0.00 0.01 0.00 76 1021.9
20201026135112 51 20 0.0 0.0 0.00 0.01 0.00 76 1021.8
20201026134628 51 20 0.0 0.0 0.00 0.01 0.00 76 1021.9
20201026134053 51 20 0.0 4.0 0.00 0.01 0.00 75 1022.0
20201026133553 51 20 1.0 4.0 0.00 0.01 0.00 76 1022.0
20201026133119 51 342 0.0 4.0 0.00 0.01 0.00 76 1022.1
20201026132552 51 342 0.0 4.0 0.00 0.01 0.00 75 1022.0
20201026132051 51 334 0.0 2.0 0.00 0.01 0.00 75 1022.0
20201026131628 50 334 0.0 0.0 0.00 0.01 0.00 75 1021.9
20201026131105 50 334 0.0 0.0 0.00 0.01 0.00 75 1021.9
20201026130605 50 334 0.0 0.0 0.00 0.01 0.00 75 1022.1
20201026130140 50 334 0.0 2.0 0.00 0.01 0.00 75 1021.9
20201026125551 50 334 0.0 2.0 0.00 0.01 0.00 75 1021.9
20201026125051 50 334 0.0 2.0 0.00 0.01 0.00 75 1021.7
20201026124610 50 334 0.0 2.0 0.00 0.01 0.00 75 1021.7
20201026124115 50 334 0.0 0.0 0.00 0.01 0.00 75 1021.6
20201026123554 50 334 0.0 1.0 0.00 0.01 0.00 75 1021.5
20201026123109 50 334 0.0 3.0 0.00 0.01 0.00 75 1021.4
20201026122547 50 334 0.0 3.0 0.00 0.01 0.00 75 1021.4
20201026122047 50 334 0.0 2.0 0.00 0.01 0.00 75 1021.5
20201026121722 50 334 0.0 1.0 0.00 0.01 0.00 75 1021.5
20201026121100 50 334 0.0 3.0 0.00 0.01 0.00 75 1021.4
20201026120546 50 281 0.0 3.0 0.00 0.01 0.00 75 1021.5
20201026120107 50 355 1.0 3.0 0.00 0.01 0.00 75 1021.3
20201026115558 51 20 0.0 5.0 0.00 0.01 0.00 75 1021.3
20201026115043 51 20 1.0 5.0 0.00 0.01 0.00 75 1021.3
20201026114723 51 11 0.0 6.0 0.00 0.01 0.00 75 1021.4
20201026114049 51 310 0.0 8.0 0.00 0.01 0.00 75 1021.3
20201026113544 51 321 3.0 8.0 0.00 0.01 0.00 75 1021.3
20201026113204 51 26 1.0 4.0 0.00 0.01 0.00 76 1021.2
20201026112555 51 355 0.0 5.0 0.00 0.01 0.00 76 1021.1
20201026112044 51 355 1.0 5.0 0.00 0.01 0.00 76 1021.1
20201026111721 51 50 0.0 4.0 0.00 0.01 0.00 76 1020.8
20201026111041 52 15 1.0 4.0 0.00 0.01 0.00 76 1020.7
20201026110602 52 306 1.0 3.0 0.00 0.01 0.00 76 1020.8
20201026110101 52 12 0.0 0.0 0.00 0.01 0.00 76 1020.6
20201026105539 52 11 0.0 3.0 0.00 0.01 0.00 76 1020.6
20201026105119 52 11 1.0 3.0 0.00 0.01 0.00 76 1020.6
20201026104705 52 340 0.0 3.0 0.00 0.01 0.00 76 1020.6
20201026104042 52 340 0.0 2.0 0.00 0.01 0.00 75 1020.8
20201026103538 52 69 0.0 2.0 0.00 0.01 0.00 75 1020.8
20201026103051 52 69 0.0 1.0 0.00 0.01 0.00 75 1020.8
20201026102539 52 69 0.0 3.0 0.00 0.01 0.00 75 1020.8
20201026102038 52 79 0.0 3.0 0.00 0.01 0.00 76 1020.8
20201026101541 52 80 0.0 0.0 0.00 0.01 0.00 75 1020.7
20201026101039 52 80 0.0 0.0 0.00 0.01 0.00 75 1020.5
20201026100535 52 80 0.0 0.0 0.00 0.01 0.00 75 1020.4
20201026100057 52 80 0.0 0.0 0.00 0.01 0.00 75 1020.3
20201026095541 52 80 0.0 0.0 0.00 0.01 0.00 75 1020.2
20201026095034 52 80 0.0 0.0 0.00 0.01 0.00 75 1020.0
20201026094539 52 80 0.0 0.0 0.00 0.01 0.00 75 1019.9
20201026094030 52 80 0.0 0.0 0.00 0.01 0.00 75 1019.8
20201026093529 52 80 0.0 0.0 0.00 0.01 0.00 75 1019.8
20201026093042 52 80 0.0 0.0 0.00 0.01 0.00 75 1019.8
20201026092530 52 80 0.0 0.0 0.00 0.01 0.00 75 1019.9
20201026092037 52 80 0.0 0.0 0.00 0.01 0.00 75 1019.9
20201026091555 52 80 0.0 0.0 0.00 0.01 0.00 75 1020.0
20201026091029 52 80 0.0 0.0 0.00 0.01 0.00 75 1020.0
20201026090532 52 80 0.0 0.0 0.00 0.01 0.00 75 1019.9
20201026090140 52 80 0.0 0.0 0.00 0.01 0.00 75 1020.0
20201026085526 52 80 0.0 0.0 0.00 0.01 0.00 75 1019.9
20201026085027 52 80 0.0 0.0 0.00 0.01 0.00 74 1019.6
20201026084736 52 80 0.0 0.0 0.00 0.01 0.00 74 1019.2
20201026084026 52 80 0.0 0.0 0.00 0.01 0.00 74 1019.3
20201026083535 52 80 0.0 0.0 0.00 0.01 0.00 74 1019.2
20201026083115 52 80 0.0 0.0 0.00 0.01 0.00 74 1019.4
20201026082535 52 80 0.0 0.0 0.00 0.01 0.00 74 1019.4
20201026082029 52 80 0.0 0.0 0.00 0.01 0.00 74 1019.5
20201026081557 52 80 0.0 0.0 0.00 0.01 0.00 74 1019.7
20201026081053 52 80 0.0 0.0 0.00 0.01 0.00 74 1019.6
20201026080531 52 80 0.0 0.0 0.00 0.01 0.00 74 1019.7
20201026080045 52 80 0.0 0.0 0.00 0.01 0.00 74 1019.6
20201026075524 52 80 0.0 0.0 0.00 0.01 0.00 73 1019.5
20201026075025 52 80 0.0 0.0 0.00 0.01 0.00 73 1019.5
20201026074536 52 80 0.0 0.0 0.00 0.01 0.00 73 1019.3
20201026074027 52 80 0.0 0.0 0.00 0.01 0.00 73 1019.3
20201026073529 52 80 0.0 0.0 0.00 0.01 0.00 73 1019.4
20201026073102 52 80 0.0 0.0 0.00 0.01 0.00 73 1019.3
20201026072526 52 80 0.0 0.0 0.00 0.01 0.00 73 1019.2
20201026072021 52 80 0.0 0.0 0.00 0.01 0.00 73 1019.4
20201026071528 52 80 0.0 0.0 0.00 0.01 0.00 73 1019.4
20201026071031 52 80 0.0 0.0 0.00 0.01 0.00 73 1019.5
20201026070524 52 80 0.0 0.0 0.00 0.01 0.00 73 1019.7
20201026070038 52 80 0.0 0.0 0.00 0.01 0.00 73 1019.7
20201026065534 52 80 0.0 0.0 0.00 0.01 0.00 73 1019.8
20201026065027 52 80 0.0 0.0 0.00 0.01 0.00 73 1019.8
20201026064547 52 80 0.0 0.0 0.00 0.01 0.00 73 1019.7
20201026064035 52 80 0.0 0.0 0.00 0.01 0.00 73 1019.6
20201026063522 52 80 0.0 0.0 0.00 0.01 0.00 73 1019.4
20201026063117 52 80 0.0 0.0 0.00 0.01 0.00 73 1019.5
20201026062522 52 80 0.0 0.0 0.00 0.01 0.00 73 1019.4
20201026062037 52 80 0.0 0.0 0.00 0.01 0.00 72 1019.4
20201026061528 52 80 0.0 0.0 0.00 0.01 0.00 73 1019.4
20201026061016 52 80 0.0 0.0 0.00 0.01 0.00 72 1019.4
20201026060522 52 80 0.0 0.0 0.00 0.01 0.00 72 1019.4
20201026060035 52 80 0.0 0.0 0.00 0.01 0.00 72 1019.3
20201026055520 52 80 0.0 0.0 0.00 0.01 0.00 72 1019.2
20201026055018 52 80 0.0 0.0 0.00 0.01 0.00 72 1019.2
20201026054540 52 80 0.0 0.0 0.00 0.01 0.00 72 1019.3
20201026054010 52 80 0.0 0.0 0.00 0.01 0.00 72 1019.1
20201026053510 52 80 0.0 0.0 0.00 0.01 0.00 72 1019.2
20201026053021 52 80 0.0 0.0 0.00 0.01 0.00 72 1019.3
20201026052517 53 80 0.0 0.0 0.00 0.01 0.00 72 1019.4
20201026052010 53 80 0.0 0.0 0.00 0.01 0.00 72 1019.5
20201026051531 53 80 0.0 0.0 0.00 0.01 0.00 72 1019.5
20201026050633 53 80 0.0 0.0 0.00 0.01 0.00 72 1019.5
20201026050302 53 80 0.0 0.0 0.00 0.01 0.00 72 1019.5
20201026045610 53 80 0.0 0.0 0.00 0.01 0.00 72 1019.3
20201026045059 53 80 0.0 0.0 0.00 0.01 0.00 72 1019.3
20201026044818 53 80 0.0 0.0 0.00 0.01 0.00 72 1019.5
20201026044116 53 80 0.0 0.0 0.00 0.01 0.00 71 1019.5
20201026043608 53 80 0.0 0.0 0.00 0.01 0.00 71 1019.5
20201026043134 53 80 0.0 0.0 0.00 0.01 0.00 71 1019.4
20201026042553 53 80 0.0 0.0 0.00 0.01 0.00 71 1019.2
20201026042047 53 80 0.0 0.0 0.00 0.01 0.00 71 1019.1
20201026041649 53 80 0.0 0.0 0.00 0.01 0.00 70 1019.1
20201026041051 53 80 0.0 0.0 0.00 0.01 0.00 70 1019.1
20201026040545 53 80 0.0 0.0 0.00 0.01 0.00 70 1019.3
20201026040124 53 80 0.0 0.0 0.00 0.01 0.00 69 1019.4
20201026035559 53 80 0.0 0.0 0.00 0.01 0.01 68 1019.4
20201026035047 53 80 0.0 0.0 0.00 0.01 0.01 68 1019.6
20201026034555 53 80 0.0 0.0 0.00 0.01 0.01 68 1019.5
20201026034040 53 80 0.0 0.0 0.00 0.01 0.01 68 1019.6
20201026033539 53 80 0.0 0.0 0.00 0.01 0.01 67 1019.6
20201026033151 53 80 0.0 0.0 0.00 0.01 0.01 67 1019.5
20201026032547 54 80 0.0 0.0 0.00 0.01 0.01 67 1019.4
20201026032049 54 80 0.0 0.0 0.00 0.01 0.01 67 1019.5
20201026031623 54 80 0.0 0.0 0.00 0.01 0.01 67 1019.6
20201026031109 54 80 0.0 0.0 0.00 0.01 0.01 66 1019.5
20201026030547 54 80 0.0 0.0 0.00 0.01 0.01 66 1019.6
20201026030311 54 80 0.0 0.0 0.00 0.01 0.01 65 1019.5
20201026025600 54 80 0.0 0.0 0.00 0.01 0.01 65 1019.5
20201026025039 54 80 0.0 0.0 0.00 0.01 0.01 64 1019.6
20201026024637 54 80 0.0 0.0 0.00 0.01 0.01 64 1019.6
20201026024053 54 80 0.0 0.0 0.00 0.01 0.01 63 1019.5
20201026023537 54 80 0.0 0.0 0.00 0.01 0.01 62 1019.4
20201026023153 54 80 0.0 0.0 0.00 0.01 0.01 62 1019.5
20201026022541 54 80 0.0 0.0 0.00 0.01 0.01 62 1019.4
20201026022040 54 80 0.0 0.0 0.00 0.01 0.01 61 1019.4
20201026021556 54 80 0.0 0.0 0.00 0.01 0.01 61 1019.4
20201026021044 54 80 0.0 0.0 0.00 0.01 0.01 61 1019.3
20201026020535 54 80 0.0 0.0 0.00 0.01 0.01 61 1019.4
20201026020105 54 80 0.0 0.0 0.00 0.01 0.01 61 1019.3
20201026015536 54 80 0.0 0.0 0.00 0.01 0.01 61 1019.2
20201026015053 54 80 0.0 0.0 0.00 0.01 0.01 60 1019.2
20201026014543 54 80 0.0 0.0 0.00 0.01 0.01 60 1019.3
20201026014048 54 80 0.0 2.0 0.00 0.01 0.01 60 1019.2
20201026013538 54 80 0.0 2.0 0.00 0.01 0.01 59 1019.3
20201026013114 54 80 0.0 1.0 0.00 0.01 0.01 59 1019.5
20201026012540 54 80 0.0 0.0 0.00 0.01 0.01 58 1019.5
20201026012043 54 80 0.0 0.0 0.00 0.01 0.01 58 1019.5
20201026011621 54 80 0.0 0.0 0.00 0.01 0.01 58 1019.6
20201026011037 54 80 0.0 2.0 0.00 0.01 0.01 58 1019.4
20201026010548 54 80 0.0 3.0 0.00 0.01 0.01 57 1019.3
20201026010054 54 82 0.0 3.0 0.00 0.01 0.01 57 1019.3
20201026005555 54 55 0.0 2.0 0.00 0.02 0.01 57 1019.1
20201026005042 54 54 0.0 4.0 0.00 0.02 0.01 57 1019.2
20201026004547 54 54 0.0 4.0 0.00 0.02 0.01 57 1019.1
20201026004051 55 78 0.0 3.0 0.00 0.02 0.01 57 1019.3
20201026003601 55 100 0.0 3.0 0.00 0.02 0.01 57 1019.4
20201026003123 55 61 0.0 2.0 0.00 0.02 0.01 57 1019.4
20201026003028 55 61 0.0 2.0 0.00 0.02 0.01 56 1019.5
20201026002539 55 103 0.0 2.0 0.00 0.02 0.01 57 1019.5
20201026002032 55 71 0.0 2.0 0.00 0.02 0.01 57 1019.4
20201026001638 55 105 0.0 3.0 0.00 0.02 0.01 57 1019.6
20201026001040 55 105 0.0 3.0 0.00 0.02 0.01 57 1019.5
20201026000539 55 34 0.0 1.0 0.00 0.02 0.01 57 1019.5
20201026000102 55 34 0.0 2.0 0.00 0.02 0.01 57 1019.4
20201025235545 55 34 0.0 2.0 0.00 0.02 0.01 57 1019.2
20201025235040 55 69 0.0 3.0 0.00 0.02 0.01 56 1019.0
20201025234534 55 76 0.0 4.0 0.00 0.02 0.01 56 1019.0
20201025234108 55 62 0.0 4.0 0.00 0.02 0.01 56 1019.1
20201025233536 55 59 0.0 3.0 0.00 0.02 0.01 56 1019.1
20201025233128 55 59 0.0 4.0 0.00 0.02 0.01 56 1019.3
20201025232534 55 74 1.0 4.0 0.00 0.02 0.01 56 1019.2
20201025232035 55 28 0.0 4.0 0.00 0.02 0.01 56 1019.2
20201025231554 55 90 0.0 4.0 0.00 0.02 0.01 55 1019.4
20201025231043 55 109 0.0 5.0 0.00 0.02 0.01 56 1019.2
20201025230555 56 49 1.0 5.0 0.00 0.02 0.01 56 1019.2
20201025230107 56 64 0.0 1.0 0.00 0.02 0.01 56 1019.4
20201025225536 56 64 0.0 2.0 0.00 0.02 0.01 56 1019.3
20201025225040 56 64 0.0 3.0 0.00 0.02 0.01 55 1019.2
20201025224547 56 64 0.0 3.0 0.00 0.02 0.01 55 1019.2
20201025224031 56 79 0.0 4.0 0.00 0.02 0.01 55 1019.1
20201025223544 56 59 0.0 4.0 0.00 0.02 0.01 55 1019.2
20201025223119 56 53 0.0 1.0 0.00 0.02 0.01 55 1019.2
20201025222539 56 82 0.0 0.0 0.00 0.02 0.01 54 1019.2
20201025222042 56 82 0.0 2.0 0.00 0.02 0.01 54 1019.2
20201025221549 56 63 0.0 2.0 0.00 0.02 0.01 53 1019.2
20201025221028 56 88 0.0 3.0 0.00 0.02 0.01 54 1019.3
20201025220528 57 70 0.0 3.0 0.00 0.02 0.01 54 1019.4
20201025220058 57 76 0.0 2.0 0.01 0.02 0.01 54 1019.3
20201025215533 57 84 0.0 5.0 0.01 0.02 0.01 54 1019.1
20201025215031 57 85 1.0 5.0 0.01 0.02 0.01 54 1019.0
20201025214559 57 60 0.0 5.0 0.01 0.02 0.01 54 1019.1
20201025214035 57 67 1.0 5.0 0.01 0.02 0.01 54 1019.1
20201025213527 57 38 0.0 3.0 0.01 0.02 0.01 54 1019.2
20201025213118 57 40 0.0 3.0 0.01 0.02 0.01 54 1019.3
20201025212535 57 40 0.0 6.0 0.01 0.02 0.01 54 1019.3